TimeCET,TemperatureF,Dew PointF,Humidity,Sea Level PressureIn,VisibilityMPH,Wind Direction,Wind SpeedMPH,Gust SpeedMPH,PrecipitationIn,Events,Conditions,WindDirDegrees,DateUTC
1:00 AM,42,40,88,30.22,5,Calm,Calm,,,,Mist,,2012-11-24 00:00:00
6:00 AM,39.2,37.4,93,30.12,4.3,Variable,1.2,-,N/A,,Unknown,0,2012-11-24 05:00:00
6:30 AM,39.2,37.4,93,30.12,3.7,Calm,Calm,-,N/A,,Unknown,0,2012-11-24 05:30:00
7:00 AM,38,37,94,30.20,3,SW,2.3,,,,Mist,230,2012-11-24 06:00:00
7:00 AM,39.2,37.4,93,30.12,3.1,Variable,1.2,-,N/A,,Partly Cloudy,0,2012-11-24 06:00:00
7:30 AM,39.2,39.2,100,30.12,3.1,Variable,2.3,-,N/A,,Partly Cloudy,0,2012-11-24 06:30:00
8:00 AM,39.2,37.4,93,30.12,5.0,Calm,Calm,-,N/A,,Unknown,0,2012-11-24 07:00:00
8:30 AM,39.2,39.2,100,30.15,5.0,Calm,Calm,-,N/A,,Unknown,0,2012-11-24 07:30:00
9:00 AM,41.0,41.0,100,30.15,-9999.0,Variable,1.2,-,N/A,,Clear,0,2012-11-24 08:00:00
9:30 AM,44.6,42.8,93,30.15,-9999.0,Calm,Calm,-,N/A,,Clear,0,2012-11-24 08:30:00
10:00 AM,48.2,44.6,87,30.15,-9999.0,Calm,Calm,-,N/A,,Clear,0,2012-11-24 09:00:00
10:30 AM,50.0,44.6,82,30.15,-9999.0,Variable,2.3,-,N/A,,Clear,0,2012-11-24 09:30:00
11:00 AM,51.8,44.6,76,30.15,-9999.0,Calm,Calm,-,N/A,,Clear,0,2012-11-24 10:00:00
11:30 AM,55.4,46.4,72,30.15,-9999.0,Calm,Calm,-,N/A,,Clear,0,2012-11-24 10:30:00
12:00 PM,60.8,46.4,59,30.15,-9999.0,Calm,Calm,-,N/A,,Clear,0,2012-11-24 11:00:00
12:30 PM,59.0,44.6,59,30.12,-9999.0,Calm,Calm,-,N/A,,Clear,0,2012-11-24 11:30:00
1:00 PM,60,44,44,30.10,16,Calm,Calm,,,,Scattered Clouds,,2012-11-24 12:00:00
1:00 PM,60.8,44.6,55,30.12,-9999.0,Variable,1.2,-,N/A,,Clear,0,2012-11-24 12:00:00
1:30 PM,60.8,46.4,59,30.12,-9999.0,Variable,1.2,-,N/A,,Clear,0,2012-11-24 12:30:00
2:00 PM,62.6,44.6,52,30.09,-9999.0,Calm,Calm,-,N/A,,Clear,0,2012-11-24 13:00:00
2:30 PM,64.4,48.2,56,30.09,-9999.0,Variable,1.2,-,N/A,,Clear,0,2012-11-24 13:30:00
3:00 PM,62.6,46.4,55,30.09,-9999.0,Variable,1.2,-,N/A,,Clear,0,2012-11-24 14:00:00
3:30 PM,62.6,48.2,59,30.09,-9999.0,Variable,2.3,-,N/A,,Clear,0,2012-11-24 14:30:00
4:00 PM,62.6,48.2,59,30.06,-9999.0,Variable,1.2,-,N/A,,Clear,0,2012-11-24 15:00:00
4:30 PM,62.6,50.0,63,30.06,-9999.0,Variable,1.2,-,N/A,,Clear,0,2012-11-24 15:30:00
5:00 PM,62.6,50.0,63,30.06,-9999.0,Calm,Calm,-,N/A,,Clear,0,2012-11-24 16:00:00
5:30 PM,62.6,51.8,68,30.06,-9999.0,Calm,Calm,-,N/A,,Clear,0,2012-11-24 16:30:00
6:00 PM,59.0,53.6,82,30.09,-9999.0,Variable,2.3,-,N/A,,Clear,0,2012-11-24 17:00:00
6:30 PM,57.2,53.6,88,30.09,-9999.0,Calm,Calm,-,N/A,,Clear,0,2012-11-24 17:30:00
7:00 PM,57,51,74,30.09,16,Calm,Calm,,,,Scattered Clouds,,2012-11-24 18:00:00
7:00 PM,57.2,53.6,88,30.09,-9999.0,Calm,Calm,-,N/A,,Clear,0,2012-11-24 18:00:00
7:30 PM,55.4,51.8,88,30.12,-9999.0,Variable,1.2,-,N/A,,Clear,0,2012-11-24 18:30:00
8:00 PM,53.6,51.8,94,30.12,-9999.0,Calm,Calm,-,N/A,,Clear,0,2012-11-24 19:00:00
8:30 PM,53.6,50.0,88,30.12,-9999.0,Variable,2.3,-,N/A,,Clear,0,2012-11-24 19:30:00
9:00 PM,53.6,50.0,88,30.12,-9999.0,Calm,Calm,-,N/A,,Clear,0,2012-11-24 20:00:00
9:30 PM,53.6,50.0,88,30.12,-9999.0,Calm,Calm,-,N/A,,Clear,0,2012-11-24 20:30:00
10:00 PM,51.8,50.0,94,30.15,-9999.0,Calm,Calm,-,N/A,,Clear,0,2012-11-24 21:00:00
10:30 PM,50.0,48.2,94,30.15,-9999.0,Calm,Calm,-,N/A,,Clear,0,2012-11-24 21:30:00
11:00 PM,50.0,48.2,94,30.15,-9999.0,Calm,Calm,-,N/A,,Clear,0,2012-11-24 22:00:00